Volver al catálogo

STARLINK-36318

ActivoComunicacionesVLEO
NORAD 68048·PAYLOAD·🇺🇸 United States

Lanzado Mar 2, 2026 desde Vandenberg Space Force Base

Loading…

Próximos Pases (próximas 24 horas)

TLE

ActualizadoSource: CelesTrak SupGP

Época: Sep 15, 2026, 03:38 UTC

1 68048C 26041J   26258.15187500 -.00046775  00000+0 -13819-2 0  2581
2 68048  53.1584 245.0633 0001333  89.1796 253.1408 15.34414751    16

Sigue STARLINK-36318 en tiempo real con AllMySat

Download on the App Store